User: anonymous   Login
Location: *
(50.5492°N, 7.7469°E)
Time: 10:56:31
(UTC+00:00)
Language:

STARLINK-72 - Orbit

View from above orbital plane
View from above orbital plane
View from above satellite
View from above satellite

Ground track
Ground track

The orbit data is extracted from the following two-line orbital elements,

1 44263U 19029AE  19343.25002315 -.00024647  00000-0 -14019-2 0  9990
2 44263  53.0023 357.6976 0000973 115.0000 230.9703 15.12125039 30155
Epoch (UTC): 09 December 2019 06:00:02
Eccentricity: 0.0000973
inclination: 53.0023°
perigee height: 529 km
apogee height: 530 km
right ascension of ascending node: 357.6976°
argument of perigee: 115.0000°
revolutions per day: 15.12125039
mean anomaly at epoch: 230.9703°
orbit number at epoch: 3015

The dashed part of the orbit path shows where the satellite is in the earth's shadow,  

DLR